TimeEST,TemperatureF,Dew PointF,Humidity,Sea Level PressureIn,VisibilityMPH,Wind Direction,Wind SpeedMPH,Gust SpeedMPH,PrecipitationIn,Events,Conditions,WindDirDegrees,DateUTC
12:15 AM,62.6,60.8,94,30.22,10.0,South,5.8,-,N/A,,Clear,170,2012-11-13 05:15:00
12:35 AM,62.6,60.8,94,30.22,10.0,South,5.8,-,N/A,,Clear,180,2012-11-13 05:35:00
12:55 AM,62.6,60.8,94,30.21,10.0,South,4.6,-,N/A,,Clear,170,2012-11-13 05:55:00
1:15 AM,60.8,60.8,100,30.21,7.0,South,3.5,-,N/A,,Clear,190,2012-11-13 06:15:00
1:35 AM,60.8,59.0,94,30.21,7.0,Calm,Calm,-,N/A,,Clear,0,2012-11-13 06:35:00
1:55 AM,60.8,60.8,100,30.20,7.0,South,4.6,-,N/A,,Clear,170,2012-11-13 06:55:00
2:15 AM,60.8,59.0,94,30.20,7.0,Calm,Calm,-,N/A,,Clear,0,2012-11-13 07:15:00
2:35 AM,60.8,59.0,94,30.20,7.0,Calm,Calm,-,N/A,,Clear,0,2012-11-13 07:35:00
2:55 AM,60.8,59.0,94,30.19,7.0,Calm,Calm,-,N/A,,Clear,0,2012-11-13 07:55:00
3:15 AM,60.8,59.0,94,30.19,7.0,Calm,Calm,-,N/A,,Scattered Clouds,0,2012-11-13 08:15:00
3:35 AM,60.8,59.0,94,30.18,5.0,Calm,Calm,-,N/A,,Overcast,0,2012-11-13 08:35:00
3:55 AM,60.8,60.8,100,30.18,7.0,Calm,Calm,-,N/A,,Overcast,0,2012-11-13 08:55:00
4:15 AM,60.8,60.8,100,30.18,7.0,Calm,Calm,-,N/A,,Scattered Clouds,0,2012-11-13 09:15:00
4:35 AM,60.8,59.0,94,30.19,5.0,Calm,Calm,-,N/A,,Mostly Cloudy,0,2012-11-13 09:35:00
4:55 AM,60.8,59.0,94,30.19,4.0,SW,6.9,-,0.01,Rain,Rain,220,2012-11-13 09:55:00
5:15 AM,62.6,60.8,94,30.18,7.0,SSW,6.9,-,0.04,Rain,Light Rain,210,2012-11-13 10:15:00
5:35 AM,62.6,60.8,94,30.19,10.0,South,5.8,-,0.04,,Scattered Clouds,190,2012-11-13 10:35:00
5:55 AM,62.6,60.8,94,30.19,10.0,Calm,Calm,-,0.04,,Mostly Cloudy,0,2012-11-13 10:55:00
7:56 AM,64.4,62.6,94,30.22,10.0,Calm,Calm,-,N/A,,Mostly Cloudy,0,2012-11-13 12:56:00
8:56 AM,60.8,59.0,94,30.25,7.0,NNW,11.5,-,N/A,,Overcast,330,2012-11-13 13:56:00
9:56 AM,59.0,55.4,88,30.28,10.0,NNW,12.7,16.1,N/A,,Overcast,340,2012-11-13 14:56:00
10:56 AM,57.2,53.6,88,30.29,7.0,North,11.5,-,N/A,,Light Drizzle,350,2012-11-13 15:56:00
11:55 AM,57.2,53.6,88,30.28,10.0,North,16.1,21.9,N/A,Rain,Light Rain,10,2012-11-13 16:55:00
12:56 PM,53.6,50.0,88,30.27,10.0,North,13.8,-,N/A,,Overcast,10,2012-11-13 17:56:00
1:56 PM,50.0,48.2,94,30.28,7.0,NNE,13.8,23.0,N/A,,Overcast,30,2012-11-13 18:56:00
2:56 PM,50.0,46.4,87,30.30,2.0,NNE,11.5,18.4,N/A,,Overcast,20,2012-11-13 19:56:00
3:56 PM,48.2,46.4,93,30.31,3.0,NNE,12.7,-,N/A,,Overcast,20,2012-11-13 20:56:00
4:56 PM,46.4,44.6,93,30.31,1.5,North,11.5,-,N/A,Rain,Rain,10,2012-11-13 21:56:00
5:56 PM,44.6,44.6,100,30.33,2.0,NNE,12.7,-,N/A,Rain,Rain,20,2012-11-13 22:56:00
6:56 PM,44.6,42.8,93,30.36,4.0,North,13.8,-,N/A,,Light Drizzle,360,2012-11-13 23:56:00
7:56 PM,42.8,42.8,100,30.38,7.0,North,10.4,-,N/A,,Overcast,360,2012-11-14 00:56:00
8:15 PM,42.8,41.0,93,30.38,10.0,North,12.7,17.3,N/A,,Overcast,10,2012-11-14 01:15:00
8:35 PM,42.8,41.0,93,30.38,10.0,North,11.5,17.3,N/A,,Overcast,10,2012-11-14 01:35:00
8:55 PM,42.8,41.0,93,30.38,10.0,NNE,12.7,19.6,N/A,,Overcast,20,2012-11-14 01:55:00
8:56 PM,42.8,41.0,93,30.38,7.0,North,12.7,17.3,N/A,,Overcast,10,2012-11-14 01:56:00
9:15 PM,42.8,41.0,93,30.39,7.0,North,9.2,-,N/A,,Drizzle,10,2012-11-14 02:15:00
9:35 PM,42.8,41.0,93,30.40,7.0,North,10.4,-,N/A,,Drizzle,10,2012-11-14 02:35:00
9:55 PM,42.8,41.0,93,30.39,7.0,NNE,6.9,-,N/A,,Light Drizzle,20,2012-11-14 02:55:00
10:15 PM,42.8,41.0,93,30.39,10.0,NNE,9.2,-,N/A,,Overcast,20,2012-11-14 03:15:00
10:35 PM,42.8,41.0,93,30.40,10.0,North,8.1,-,N/A,,Mostly Cloudy,10,2012-11-14 03:35:00
10:55 PM,42.8,41.0,93,30.39,10.0,North,9.2,-,N/A,,Mostly Cloudy,10,2012-11-14 03:55:00
11:15 PM,42.8,41.0,93,30.38,10.0,NNE,10.4,-,N/A,,Mostly Cloudy,20,2012-11-14 04:15:00
11:35 PM,42.8,39.2,87,30.39,10.0,North,11.5,-,N/A,,Mostly Cloudy,10,2012-11-14 04:35:00
11:55 PM,42.8,39.2,87,30.39,10.0,North,11.5,-,N/A,,Mostly Cloudy,10,2012-11-14 04:55:00